SL-16 DEB

Satellite information

Favourite Embed

Satellite Type and Status

DEBRISIN ORBIT

Key statistics

Satellite SL-16 DEB at a glance.

Uptime

11792

Days in orbit

Revolutions

≈ 13.9

Per day

Orbit

LEO

Low Earth Orbit

Inclination

71.0

Latest

Satellite identification and parameters

Extended collection of information and parameters for SL-16 DEB.

Object identification

Identified? True

Debris? True

Object name: SL-16 DEB

International designator: 1993-016P

Object number (NORAD): 22605

Object ID (CCSDS): 22605

Country: COMMONWEALTH OF INDEPENDENT STATES (CIS)

Current information (Y/N): Y

RCS size: SMALL

Orbital parameters

Period: 103.525 minutes

Inclination: 70.9984 deg

SMA: 7303.365 km

Apoapsis: 1020.043 km

Periapsis: 830.417 km

RAAN: 317.0627 deg

Eccentricy: 0.0129821

Argument of periapsis: 183.671 deg

Mean anomaly: 208.5179 deg

Mean motion: 13.90971477 rev/day

Mean motion (dot): 0.00000097 rev/day2

B* drag term: 0.00010519 1/REarth

Two-line elements (TLE)

Creation date: July 6, 2025, 6:05 p.m.

Reference frame: TEME

Reference center: EARTH

Epoch: July 6, 2025, 9:02 a.m. UTC

TLE line 0: 0 SL-16 DEB

TLE line 1: 1 22605U 93016P 25187.37702046 .00000097 00000-0 10519-3 0 9991

TLE line 2: 2 22605 70.9984 317.0627 0129821 183.6710 208.5179 13.90971477636194

Live tracking on map

Real-time ground track for satellite SL-16 DEB.

In-orbit conjunctions

A list of the most updated potential collisions computed for object SL-16 DEB.

Target Orbit TCA Probability of collision Miss distance Type
NOAA 16 DEB SSO 2025-02-14 18:44:31 0.0001572059 179.0 (m) DEBRIS
FENGYUN 1C DEB SSO 2024-09-30 16:02:56 0.0001091815 76.0 (m) DEBRIS
FENGYUN 1C DEB SSO 2024-09-23 16:40:42 0.0001222526 143.0 (m) DEBRIS

Associated space launch

Second generation ELING satellite

SL-16 DEB was lifted into orbit during the mission ‘Zenit-2 | Tselina-2 13’, on board a Zenit-2 space rocket.

The launch took place on March 26, 1993, 2:21 a.m. from 45/1.

For more information about the launch, click the button.

Launch to space Zenit-2 | Tselina-2 13
Zenit-2 | Tselina-2 13

Agency: N/A

Status: Launch Successful

Launch date: March 26, 1993, 2:21 a.m. UTC

Rocket: Zenit-2

Launch pad: 45/1

Location: Baikonur Cosmodrome, Republic of Kazakhstan

...

Latest news about this satellite

There are no fresh news available about this satellite. Check back as we update our databases every day.


Newsletter sign-up

Weekly statistics, charts and insights to help you stay on top of the space industry.